Terminal Aerodrome Forecast
Issued by NWS

Home | Current Version | Previous Version | Graphics & Text | Print | Product List | Glossary On
Versions: 1 2 3 4 5 6 7 8 9 10 11 12
000
FTUS45 KGGW 231100
TAFGDV
TAF
KGDV 231130Z 2312/2412 VRB06KT P6SM SCT200
     FM231800 20010KT P6SM BKN150
     FM240100 25006KT P6SM BKN100
      AMD LTD TO CLD VIS AND WIND=

USA.gov is the U.S. government's official web portal to all federal, state and local government web resources and services.